Regional Weather Roundup
Issued by NWS

Home | Current Version | Previous Version | Graphics & Text | Print | Product List | Glossary On
Versions: 1 2 3 4 5 6 7 8 9 10 11 12 13 14 15 16 17 18 19 20 21 22 23 24 25 26 27 28 29 30 31 32 33 34 35 36 37 38 39 40 41 42 43 44 45 46 47 48 49 50
000
ASUS45 KCYS 291510
RWRWY

WYOMING REGIONAL WEATHER ROUNDUP
NATIONAL WEATHER SERVICE CHEYENNE WY
900 AM MDT TUE JUL 29 2014

NOTE:  "FAIR" INDICATES FEW OR NO CLOUDS BELOW 12,000 FEET
WITH NO SIGNIFICANT WEATHER AND/OR OBSTRUCTIONS TO VISIBILITY.

WYZ001-291600-
YELLOWSTONE NATIONAL PARK

CITY           SKY/WX    TMP DP  RH WIND       PRES   REMARKS
LK YELLOWSTONE   N/A     56  45  66 CALM      30.47F
W YELLOWSTONE  NOT AVBL

$$
WYZ002>013-054>058-071-098>099-291600-
NORTHERN WYOMING

CITY           SKY/WX    TMP DP  RH WIND       PRES   REMARKS
JACKSON        CLOUDY    64  48  55 N15       30.33S
CODY           NOT AVBL
GREYBULL       PTSUNNY   77  50  38 SE6       30.21R
WORLAND        PTSUNNY   75  51  43 SE10      30.24R
SHERIDAN       CLOUDY    66  59  78 S3        30.27R
BUFFALO        LGT RAIN  65  56  72 SW8       30.36R
GILLETTE       CLOUDY    62  58  86 W7        30.32R
HULETT         FAIR      63  55  77 MISG      30.28
NEWCASTLE      FAIR      61  59  94 W7        30.30

$$
WYZ014>020-022>026-101>103-291600-
CENTRAL WYOMING

CITY           SKY/WX    TMP DP  RH WIND       PRES   REMARKS
BIG PINEY      CLOUDY    63  48  58 CALM      30.38R
PINEDALE       DRIZZLE   59  52  77 W5        30.38R
DUBOIS         LGT RAIN  57  48  72 SE12      30.41R
LANDER         LGT RAIN  68  49  50 E6        30.33R
RIVERTON       CLOUDY    64  50  60 N12       30.34R
CASPER         PTSUNNY   64  51  62 E15G21    30.33S
DOUGLAS        MOSUNNY   66  53  63 S8        30.32F

$$
WYZ021-027>030-104>119-291600-
SOUTHERN WYOMING

CITY           SKY/WX    TMP DP  RH WIND       PRES   REMARKS
EVANSTON       LGT RAIN  58  57  97 SE5       30.37R FOG
FORT BRIDGER   CLOUDY    67  52  58 W7        30.38R
ROCK SPRINGS   CLOUDY    66  46  48 NE7       30.35S
DIXON          PTSUNNY   68  51  53 CALM      30.38S
RAWLINS        CLOUDY    67  49  52 SW6       30.36R
SARATOGA       PTSUNNY   64  50  59 CALM      30.38S
LARAMIE        PTSUNNY   66  54  65 E3        30.37S
CHEYENNE       MOSUNNY   71  58  63 E5        30.32R
TORRINGTON     CLOUDY    62  57  83 E12       30.27S
PINE BLUFFS    FAIR      68  61  77 NE6       30.29R

$$



USA.gov is the U.S. government's official web portal to all federal, state and local government web resources and services.